Preview of NWS' New Version of Forecast
This preview is not operational and should not be used for support decisions.

Regional Weather Roundup (RWR)

Issued by National Weather Service (NWS)

                            
000
ASUS44 KJAN 192310
RWRMS 

MISSISSIPPI HOURLY WEATHER ROUNDUP
NATIONAL WEATHER SERVICE JACKSON MS
600 PM CDT FRI APR 19 2019

NOTE: "FAIR: INDICATES FEW OR NO CLOUDS BELOW 12,000 FEET WITH NO
SIGNIFICANT WEATHER AND/OR OBSTRUCTIONS TO VISIBILITY.

MSZ001>002-007>008-010>013-018>021-025>028-034>036-200000-
NORTHWEST MISSISSIPPI
  
CITY           SKY/WX    TMP DP  RH WIND       PRES   REMARKS
BATESVILLE     LGT RAIN  48  45  87 NW12G21   29.82R                  
CLARKSDALE     MOSUNNY   54  43  66 NW15G23   29.83R                  
CLEVELAND      CLOUDY    53  41  63 NW15G22   29.84R                  
GREENWOOD      CLOUDY    53  40  61 N12G17    29.83R                  
GREENVILLE     CLOUDY    54  41  61 NW14      29.84R                  
OLIVE BRANCH   LGT RAIN  45  45 100 NW13G20   29.79R FOG              
OXFORD         DRIZZLE   45  43  93 NW10G20   29.81R                  
TUNICA         DRIZZLE   48  43  81 NW15G21   29.83R                  
WINONA         CLOUDY    49  44  83 NW6G16    29.81R                  
$$

MSZ003>006-009-014>017-022>024-029>033-037>039-200000-
NORTHEAST MISSISSIPPI
  
CITY           SKY/WX    TMP DP  RH WIND       PRES   REMARKS
ABERDEEN       LGT RAIN  46  46 100 NW10G17   29.77R                  
COLUMBUS AFB   LGT RAIN  50  43  77 NW18G24   29.75R                  
CORINTH        DRIZZLE   46  43  87 W13G22    29.71S                  
GOLDN TRIANGLE CLOUDY    51  44  77 NW10      29.76R                  
STARKVILLE     MOCLDY    50  43  76 W7G17     29.79R                  
TUPELO         LGT RAIN  47  42  83 NW14G21   29.75R                  
$$

MSZ040-058-200000-
CENTRAL MISSISSIPPI
  
CITY           SKY/WX    TMP DP  RH WIND       PRES   REMARKS
JACKSON INTL   CLOUDY    55  39  54 NW10G20   29.84R                  
JACKSON HAWKNS CLOUDY    55  43  63 NW8       29.84R                  
MADISON        MOCLDY    52  41  66 NW18G31   29.84R                  
MERIDIAN KEY   CLOUDY    53  42  66 NW16      29.79R                  
MERIDIAN NAS   CLOUDY    54  44  69 W16G26    29.78R                  
RAYMOND        FAIR      52  48  87 NW10      29.84R                  
VICKSBURG VKS  MOCLDY    57  41  54 NW12G23   29.87R                  
$$

MSZ059>079-200000-
SOUTH MISSISSIPPI
  
CITY           SKY/WX    TMP DP  RH WIND       PRES   REMARKS
HATTIESBURG    FAIR      59  45  59 NW10      29.82R                  
LAUREL         CLOUDY    55  45  67 NW7       29.80R                  
MCCOMB         CLOUDY    56  47  71 NW10G18   29.86R                  
NATCHEZ        FAIR      60  41  49 N14G29    29.88R                  
PINE BELT      CLOUDY    54  46  74 NW8G16    29.83R                  
$$

MSZ080>082-200000-
COASTAL MISSISSIPPI
  
CITY           SKY/WX    TMP DP  RH WIND       PRES   REMARKS
BAY ST LOUIS   PTSUNNY   63  48  59 N13       29.82R                  
BILOXI         FAIR      61  46  57 NW9       29.81R                  
PASCAGOULA     FAIR      63  42  46 NW8G21    29.79S                  
GULFPORT       FAIR      62  47  57 NW14      29.81R                  
$$

LAZ007>009-015>016-023>026-200000-
NORTHEAST LOUISIANA
  
CITY           SKY/WX    TMP DP  RH WIND       PRES   REMARKS
BASTROP        CLOUDY    58  42  56 NW3       29.87S                  
TALLULAH/VBURG PTSUNNY   57  40  52 NW12G18   29.87R                  
VIDALIA        MOCLDY    62  46  57 NW8       29.88R                  
$$